Content
SEND FEEDBACK

Daily
Averages
Monthly
Summary
United States of America

IOWA FALLS, IOWA


Home > North America > United States > Iowa
Elevation: 1085 feet     Latitude: 42 31N     Longitude: 093 16W

WEATHER
 
SELECT A DAY
Number of Records: 158,284;   Date Range: 6/29/07 - 7/11/14
 
SHARE

PRINT THIS DATA

[ ← Previous Day ]
WEATHER ALMANAC - FEBRUARY 5, 2013
[ Next Day → ]
[ °C ]   °F
Weather ElementAverageHighLow
Temperature27.8 °F36.9 °F (1:35 pm)19.4 °F (5:35 am)
Dewpoint23.3 °F30 °F (1:35 pm)16.5 °F (5:35 am)
Humidity83.3 %90 % (6:55 am)75 % (2:15 pm)
Barometer29.88 in30.09 in (10:35 pm)29.75 in (6:15 am)
Wind Speed12.2 mph20.7 mph (1:55 pm)
Wind Gust27.6 mph (12:15 pm)
Weather ElementAverage
Visibility6.7 mi
Wind DirectionW (272.9 °)

Weather ElementTotal
Precipitation---
Heating Degree Days36.9 (Base 65)
Averaged from 59 records on February 5, 2013
WEATHER CONDITIONS BREAKOUT
WIND DIRECTION BREAKOUT
WEATHER BY HOUR - FEBRUARY 5, 2013
[ °C ]   °F
Local TimeTemperatureDewpointHumidityBarometerVisibilityWind DirectionWind SpeedGust SpeedPrecipitationEventsConditions
12:35 AM21.6 °F17.2 °F83 %29.87 in10.0 miSouth (190°)11.5 mphOvercast
1:15 AM21.6 °F17.6 °F85 %29.86 in7.0 miSouth (190°)8.1 mphOvercast
1:35 AM21.6 °F17.6 °F85 %29.84 in10.0 miSouth (190°)11.5 mphOvercast
1:55 AM21.6 °F17.6 °F85 %29.83 in10.0 miSouth (190°)15.0 mphOvercast
2:15 AM21.2 °F17.4 °F85 %29.82 in7.0 miSouth (190°)13.8 mphOvercast
2:35 AM21.0 °F17.4 °F86 %29.82 in10.0 miSouth (190°)12.7 mphMostly Cloudy
3:15 AM20.8 °F17.4 °F87 %29.79 in10.0 miSouth (190°)11.5 mph17.3 mphOvercast
3:35 AM20.3 °F17.1 °F87 %29.79 in10.0 miSouth (190°)9.2 mphScattered Clouds
3:55 AM20.3 °F17.1 °F87 %29.78 in10.0 miSouth (190°)9.2 mphScattered Clouds
4:15 AM20.3 °F16.9 °F87 %29.79 in7.0 miSSW (200°)10.4 mphClear
4:35 AM20.3 °F17.1 °F87 %29.77 in7.0 miSouth (190°)9.2 mphClear
4:55 AM20.1 °F17.1 °F88 %29.77 in7.0 miSSW (200°)10.4 mphClear
5:15 AM19.8 °F16.7 °F88 %29.77 in7.0 miSSW (200°)8.1 mphClear
5:35 AM19.4 °F16.5 °F89 %29.76 in7.0 miSSW (200°)8.1 mphClear
6:15 AM19.4 °F16.7 °F89 %29.75 in7.0 miSSW (210°)8.1 mphClear
6:35 AM19.4 °F16.7 °F89 %29.75 in7.0 miSSW (210°)6.9 mphClear
6:55 AM19.8 °F17.2 °F90 %29.75 in10.0 miSW (220°)8.1 mphClear
7:15 AM20.8 °F18.1 °F89 %29.76 in7.0 miSW (220°)9.2 mphScattered Clouds
7:35 AM22.8 °F19.9 °F89 %29.77 in10.0 miWSW (250°)9.2 mphMostly Cloudy
7:55 AM23.4 °F20.3 °F88 %29.76 in7.0 miWSW (240°)9.2 mphOvercast
8:15 AM23.9 °F21.2 °F89 %29.77 in7.0 miWSW (240°)10.4 mphOvercast
8:35 AM24.8 °F21.7 °F88 %29.78 in7.0 miWSW (250°)12.7 mphMostly Cloudy
9:15 AM27.1 °F23.4 °F86 %29.78 in5.0 miWest (260°)11.5 mphClear
9:35 AM29.1 °F24.8 °F84 %29.79 in7.0 miWest (270°)16.1 mphClear
9:55 AM30.9 °F26.2 °F83 %29.80 in4.0 miWest (280°)15.0 mphHaze
10:15 AM32.7 °F28.0 °F83 %29.80 in5.0 miWNW (290°)15.0 mphHaze
10:35 AM32.0 °F27.1 °F82 %29.83 in5.0 miWNW (300°)19.6 mph24.2 mphHaze
10:55 AM32.0 °F27.7 °F84 %29.84 in4.0 miWNW (300°)16.1 mphOvercast
11:15 AM33.1 °F28.2 °F82 %29.85 in5.0 miWNW (300°)16.1 mph19.6 mphHaze
11:35 AM34.2 °F29.1 °F82 %29.86 in4.0 miNW (310°)16.1 mphHaze
11:55 AM35.6 °F29.1 °F77 %29.87 in5.0 miNW (320°)17.3 mph24.2 mphHaze
12:15 PM35.2 °F28.9 °F78 %29.87 in5.0 miNW (320°)19.6 mph27.6 mphHaze
12:35 PM35.8 °F29.8 °F79 %29.88 in5.0 miNW (310°)18.4 mph23.0 mphHaze
12:55 PM35.6 °F29.3 °F78 %29.88 in7.0 miNW (310°)16.1 mphOvercast
1:15 PM36.1 °F29.7 °F77 %29.89 in5.0 miWNW (300°)15.0 mph23.0 mphHaze
1:35 PM36.9 °F30.0 °F76 %29.89 in5.0 miNW (310°)17.3 mph23.0 mphHaze
1:55 PM35.8 °F29.5 °F78 %29.90 in7.0 miNW (310°)20.7 mph24.2 mphOvercast
2:15 PM35.8 °F28.4 °F75 %29.91 in5.0 miNW (310°)20.7 mph24.2 mphHaze
2:35 PM35.6 °F28.4 °F75 %29.92 in7.0 miNW (310°)17.3 mphOvercast
2:55 PM35.8 °F28.4 °F75 %29.93 in7.0 miNW (310°)16.1 mphOvercast
3:15 PM35.8 °F28.9 °F76 %29.94 in5.0 miNW (310°)16.1 mph23.0 mphHaze
3:35 PM35.6 °F29.3 °F78 %29.94 in5.0 miNW (310°)16.1 mph19.6 mphHaze
3:55 PM35.2 °F28.9 °F78 %29.95 in7.0 miNW (310°)15.0 mphOvercast
4:15 PM35.1 °F28.6 °F77 %29.96 in5.0 miNW (310°)13.8 mphHaze
4:35 PM34.9 °F29.1 °F79 %29.96 in5.0 miNW (310°)12.7 mph17.3 mphHaze
4:55 PM35.4 °F28.6 °F76 %29.97 in7.0 miWNW (300°)11.5 mph19.6 mphScattered Clouds
5:15 PM34.7 °F28.4 °F78 %29.97 in7.0 miWNW (300°)11.5 mph16.1 mphScattered Clouds
5:35 PM33.8 °F28.6 °F81 %29.98 in5.0 miNW (320°)11.5 mphHaze
6:15 PM32.0 °F28.4 °F87 %30.00 in7.0 miNW (310°)11.5 mphClear
6:35 PM32.0 °F28.0 °F85 %30.00 in5.0 miNW (320°)10.4 mphClear
6:55 PM31.3 °F27.5 °F86 %30.01 in5.0 miNW (320°)12.7 mph19.6 mphClear
7:15 PM30.0 °F26.1 °F85 %30.02 in7.0 miNNW (330°)13.8 mphScattered Clouds
8:35 PM27.0 °F21.4 °F79 %30.06 in7.0 miNW (320°)9.2 mphClear
9:15 PM25.3 °F20.1 °F81 %30.06 in7.0 miNNW (330°)6.9 mphClear
9:55 PM23.9 °F19.9 °F85 %30.08 in5.0 miNorth (350°)4.6 mphClear
10:15 PM23.2 °F19.2 °F85 %30.08 in7.0 miNorth (360°)5.8 mphClear
10:35 PM22.1 °F18.5 °F86 %30.09 in7.0 miNorth (350°)4.6 mphClear
11:15 PM20.8 °F17.4 °F87 %30.09 in7.0 miNNW (330°)3.5 mphClear
11:35 PM20.3 °F17.4 °F89 %30.09 in7.0 miNorth (350°)4.6 mphClear
Hourly data recorded from KIFA, located miles away from Iowa Falls, Iowa







STORIES FROM OUR PARTNERS